| time (UTC) | temp C | wind direction | speed KPH | gust KPH | rain 1hr cm | rain 24hr cm | rain mn cm | humidity % | barometer mb |
| 20260504081539 | 5 | 106 | 0.0 | 3.2 | 0.00 | 0.00 | 0.00 | 75 | 1016.2 |
| 20260504050105 | 5 | 0 | 0.0 | 3.2 | 0.00 | 0.00 | 0.00 | 66 | 1017.0 |
| 20260504044546 | 5 | 0 | 0.0 | 0.0 | 0.00 | 0.00 | 0.00 | 64 | 1016.9 |
| 20260504043039 | 5 | 0 | 0.0 | 0.0 | 0.00 | 0.00 | 0.00 | 63 | 1016.8 |
| 20260504041538 | 6 | 81 | 0.0 | 3.2 | 0.00 | 0.00 | 0.00 | 61 | 1016.7 |
| 20260504040045 | 6 | 0 | 0.0 | 1.6 | 0.00 | 0.00 | 0.00 | 59 | 1016.6 |
| 20260504034542 | 6 | 0 | 0.0 | 4.8 | 0.00 | 0.00 | 0.00 | 57 | 1016.7 |
| 20260504033044 | 7 | 104 | 1.6 | 4.8 | 0.00 | 0.00 | 0.00 | 54 | 1016.6 |
| 20260504031545 | 7 | 360 | 1.6 | 6.4 | 0.00 | 0.00 | 0.00 | 52 | 1016.5 |
| 20260504030037 | 7 | 0 | 0.0 | 3.2 | 0.00 | 0.00 | 0.00 | 51 | 1016.5 |
| 20260504024601 | 7 | 0 | 0.0 | 1.6 | 0.00 | 0.00 | 0.00 | 49 | 1016.8 |
| 20260504023045 | 8 | 0 | 0.0 | 1.6 | 0.00 | 0.00 | 0.00 | 47 | 1016.7 |
| 20260504021542 | 8 | 0 | 0.0 | 3.2 | 0.00 | 0.00 | 0.00 | 46 | 1016.6 |
| 20260504020042 | 8 | 353 | 1.6 | 6.4 | 0.00 | 0.00 | 0.00 | 45 | 1016.6 |
| 20260504014539 | 8 | 0 | 0.0 | 0.0 | 0.00 | 0.00 | 0.00 | 42 | 1016.5 |
| 20260504013046 | 9 | 0 | 0.0 | 4.8 | 0.00 | 0.00 | 0.00 | 40 | 1016.3 |
| 20260504011544 | 10 | 56 | 0.0 | 4.8 | 0.00 | 0.00 | 0.00 | 39 | 1016.1 |
| 20260504010043 | 10 | 0 | 0.0 | 3.2 | 0.00 | 0.00 | 0.00 | 37 | 1016.0 |
| 20260504004545 | 11 | 0 | 0.0 | 6.4 | 0.00 | 0.00 | 0.00 | 37 | 1015.9 |
| 20260504003043 | 11 | 14 | 1.6 | 4.8 | 0.00 | 0.00 | 0.00 | 35 | 1015.8 |
| 20260504001542 | 12 | 30 | 1.6 | 6.4 | 0.00 | 0.00 | 0.00 | 32 | 1015.6 |
| 20260504000112 | 13 | 67 | 1.6 | 8.0 | 0.00 | 0.00 | 0.00 | 30 | 1015.5 |
| 20260503234550 | 13 | 68 | 1.6 | 14.5 | 0.00 | 0.00 | 0.00 | 29 | 1015.6 |
| 20260503233038 | 13 | 106 | 3.2 | 17.7 | 0.00 | 0.00 | 0.00 | 28 | 1015.5 |
| 20260503231538 | 13 | 71 | 4.8 | 16.1 | 0.00 | 0.00 | 0.00 | 28 | 1015.6 |
| 20260503230046 | 13 | 108 | 4.8 | 20.9 | 0.00 | 0.00 | 0.00 | 27 | 1015.6 |
| 20260503224543 | 14 | 66 | 4.8 | 14.5 | 0.00 | 0.00 | 0.00 | 28 | 1015.7 |
| 20260503223040 | 15 | 33 | 8.0 | 19.3 | 0.00 | 0.00 | 0.00 | 26 | 1015.8 |
| 20260503221553 | 15 | 103 | 3.2 | 20.9 | 0.00 | 0.00 | 0.00 | 27 | 1015.7 |
| 20260503220045 | 15 | 69 | 3.2 | 19.3 | 0.00 | 0.00 | 0.00 | 27 | 1015.8 |
| 20260503214544 | 15 | 74 | 12.9 | 22.5 | 0.00 | 0.00 | 0.00 | 25 | 1015.9 |
| 20260503213047 | 15 | 58 | 6.4 | 16.1 | 0.00 | 0.00 | 0.00 | 25 | 1016.3 |
| 20260503211539 | 14 | 60 | 6.4 | 22.5 | 0.00 | 0.00 | 0.00 | 25 | 1016.3 |
| 20260503210045 | 15 | 117 | 8.0 | 22.5 | 0.00 | 0.00 | 0.00 | 24 | 1016.1 |
| 20260503204544 | 14 | 168 | 4.8 | 24.1 | 0.00 | 0.00 | 0.00 | 25 | 1016.3 |
| 20260503203056 | 14 | 172 | 4.8 | 19.3 | 0.00 | 0.00 | 0.00 | 26 | 1016.5 |
| 20260503201538 | 14 | 95 | 4.8 | 22.5 | 0.00 | 0.00 | 0.00 | 26 | 1016.7 |
| 20260503200037 | 13 | 199 | 6.4 | 24.1 | 0.00 | 0.00 | 0.00 | 27 | 1017.0 |
| 20260503194552 | 13 | 133 | 6.4 | 17.7 | 0.00 | 0.00 | 0.00 | 27 | 1017.2 |
| 20260503193047 | 13 | 87 | 8.0 | 20.9 | 0.00 | 0.00 | 0.00 | 27 | 1017.4 |
| 20260503191541 | 13 | 117 | 8.0 | 20.9 | 0.00 | 0.00 | 0.00 | 29 | 1017.7 |
| 20260503190040 | 12 | 66 | 8.0 | 17.7 | 0.00 | 0.00 | 0.00 | 32 | 1018.0 |
| 20260503184537 | 12 | 163 | 9.7 | 16.1 | 0.00 | 0.00 | 0.00 | 30 | 1018.0 |
| 20260503183042 | 12 | 111 | 6.4 | 16.1 | 0.00 | 0.00 | 0.00 | 29 | 1018.0 |
| 20260503181538 | 12 | 98 | 9.7 | 22.5 | 0.00 | 0.00 | 0.00 | 31 | 1018.0 |
| 20260503180040 | 11 | 158 | 6.4 | 16.1 | 0.00 | 0.00 | 0.00 | 34 | 1018.4 |
| 20260503174545 | 11 | 69 | 11.3 | 24.1 | 0.00 | 0.00 | 0.00 | 34 | 1018.6 |
| 20260503173053 | 11 | 106 | 9.7 | 22.5 | 0.00 | 0.00 | 0.00 | 33 | 1018.8 |
| 20260503171540 | 10 | 180 | 4.8 | 22.5 | 0.00 | 0.00 | 0.00 | 35 | 1018.8 |